Chillicothe, MO

4:52 AM CST on December 09, 2019 (GMT -0600)
Chillicothe

Weather History for KCDJ - October, 2019

Change the Weather History Date:

Wednesday, October 23, 2019

  Actual Average (KIRK) Record (KIRK)
Temperature  
Mean Temperature 52 °F -  
Max Temperature 68 °F 62 °F 87 °F (1939)
Min Temperature 39 °F 45 °F 18 °F (1937)
Degree Days  
Heating Degree Days 12    
Growing Degree Days 2 (Base 50)    
Moisture  
Dew Point 40 °F    
Average Humidity 67    
Maximum Humidity 89    
Minimum Humidity 39    
Precipitation  
Precipitation 0.00 in - - ()
Sea Level Pressure  
Sea Level Pressure 29.95 in    
Wind  
Wind Speed 4 mph (SSW)    
Max Wind Speed 13 mph    
Max Gust Speed 22 mph    
Averages and records for this station are not official NWS values.
T = Trace of Precipitation, MM = Missing Value Source: NWS Daily Summary

Daily Weather History Graph

Daily Weather History Graph

Search for Another Location

Airport or City:

Astronomy

Oct. 23, 2019 Rise Set
Actual Time 7:32 AM CDT 6:23 PM CDT
Civil Twilight 7:05 AM CDT 6:51 PM CDT
Nautical Twilight 6:33 AM CDT 7:22 PM CDT
Astronomical Twilight 6:02 AM CDT 7:54 PM CDT
Moon 1:53 AM CDT (10/23) 4:14 PM CDT (10/23)
Length of Visible Light 11h 45m
Length of Day
10h 50m
Waning Crescent, 26% of the Moon is Illuminated
Oct 23
Waning Crescent
Oct 27
New
Nov 4
First Quarter
Nov 12
Full
Nov 19
Last Quarter

Hourly Weather History & Observations

Time (CDT) Temp. Windchill Dew Point Humidity Pressure Visibility Wind Dir Wind Speed Gust Speed Precip Events Conditions
12:52 AM 39.0 °F 36.8 °F 36.0 °F 89% 29.93 in - SSW 3.5 mph - N/A   Unknown
1:52 AM 39.0 °F - 35.1 °F 86% 29.93 in - Calm Calm - N/A   Unknown
2:52 AM 39.9 °F 37.8 °F 36.0 °F 86% 29.93 in - South 3.5 mph - N/A   Unknown
3:52 AM 41.0 °F - 36.0 °F 82% 29.91 in - Calm Calm - N/A   Unknown
4:52 AM 43.0 °F - 37.9 °F 82% 29.91 in - Calm Calm - N/A   Unknown
6:52 AM 43.0 °F - 37.9 °F 82% 29.91 in - Calm Calm - N/A   Unknown
7:52 AM 46.9 °F - 37.0 °F 68% 29.91 in - South 5.8 mph - N/A   Unknown
8:52 AM 50.0 °F - 37.9 °F 63% 29.94 in - South 3.5 mph - N/A   Unknown
9:52 AM 51.1 °F - 39.9 °F 66% 29.93 in - South 9.2 mph - N/A   Unknown
10:52 AM 53.1 °F - 39.9 °F 61% 29.93 in - South 8.1 mph - N/A   Unknown
11:52 AM 57.0 °F - 42.1 °F 57% 29.91 in - South 6.9 mph - N/A   Unknown
12:52 PM 63.0 °F - 42.1 °F 46% 29.86 in - South 12.7 mph 20.7 mph N/A   Unknown
2:52 PM 66.9 °F - 42.1 °F 40% 29.81 in - SSW 10.4 mph 21.9 mph N/A   Unknown
3:52 PM 66.9 °F - 42.1 °F 40% 29.84 in - WSW 9.2 mph - N/A   Unknown
4:52 PM 66.9 °F - 41.0 °F 39% 29.86 in - WSW 10.4 mph 19.6 mph N/A   Unknown
5:52 PM 63.0 °F - 43.0 °F 48% 29.91 in - Variable 5.8 mph - N/A   Unknown
6:52 PM 60.1 °F - 45.0 °F 57% 29.97 in - Variable 5.8 mph - N/A   Unknown
7:52 PM 57.0 °F - 43.0 °F 59% 30.02 in - NW 8.1 mph - N/A   Unknown
8:52 PM 54.0 °F - 44.1 °F 69% 30.07 in - Variable 4.6 mph - N/A   Unknown
9:52 PM 51.1 °F - 44.1 °F 77% 30.11 in - NW 6.9 mph 18.4 mph N/A   Unknown
10:52 PM 48.0 °F - 44.1 °F 86% 30.17 in - NW 6.9 mph - N/A   Unknown
11:52 PM 46.9 °F - 42.1 °F 83% 30.19 in - Calm Calm - N/A   Unknown